East Porterville
DateTemperatureDew Point
09/01 - 06:30 AM54.5°53.8°
09/01 - 06:15 AM54.2°53.3°
09/01 - 06:00 AM54.5°53.5°
09/01 - 05:45 AM54.8°53.5°
09/01 - 05:30 AM55.2°53.7°
09/01 - 05:15 AM55.8°54.2°
09/01 - 05:00 AM56.3°54.5°
09/01 - 04:45 AM56.7°54.4°
09/01 - 04:30 AM56.9°54.5°
09/01 - 04:15 AM56.9°54.6°
09/01 - 04:00 AM56.8°54.4°
09/01 - 03:45 AM56.8°54.0°
09/01 - 03:30 AM57.4°54.0°
09/01 - 03:15 AM58.4°53.8°
09/01 - 03:00 AM59.2°53.8°
09/01 - 02:45 AM59.8°52.9°
09/01 - 02:30 AM60.3°53.4°
09/01 - 02:15 AM60.8°53.0°
09/01 - 02:00 AM61.1°53.0°
09/01 - 01:45 AM61.3°51.8°
09/01 - 01:30 AM61.2°51.3°
09/01 - 01:15 AM60.6°50.6°
09/01 - 01:00 AM60.3°49.9°
09/01 - 12:45 AM61.5°51.1°
09/01 - 12:30 AM62.0°49.5°
09/01 - 12:15 AM62.8°49.4°
09/01 - 12:00 AM63.3°47.2°
08/31 - 11:45 PM64.3°48.2°
08/31 - 11:30 PM65.7°48.8°
08/31 - 11:15 PM66.5°47.4°
08/31 - 11:00 PM66.9°46.3°
08/31 - 10:45 PM67.7°46.0°
08/31 - 10:30 PM67.8°43.5°
08/31 - 10:15 PM67.7°42.7°
08/31 - 10:00 PM68.3°41.1°
08/31 - 09:45 PM68.6°41.3°
08/31 - 09:30 PM68.4°44.5°
08/31 - 09:15 PM69.0°45.1°
08/31 - 09:00 PM69.5°47.0°
08/31 - 08:45 PM70.6°48.0°
08/31 - 08:30 PM71.1°50.6°
08/31 - 08:15 PM71.9°52.0°
08/31 - 08:00 PM72.5°52.7°
08/31 - 07:45 PM73.4°57.1°
08/31 - 07:30 PM75.1°58.7°
08/31 - 07:15 PM77.2°58.7°
08/31 - 07:00 PM80.1°58.6°
08/31 - 06:45 PM83.1°59.1°
08/31 - 06:30 PM85.6°56.8°
08/31 - 06:15 PM86.9°55.0°
08/31 - 06:00 PM88.2°53.8°
08/31 - 05:45 PM88.9°53.1°
08/31 - 05:30 PM89.6°53.8°
08/31 - 05:15 PM90.2°53.3°
08/31 - 05:00 PM90.7°53.2°
08/31 - 04:45 PM90.9°52.9°
08/31 - 04:30 PM91.1°52.9°
08/31 - 04:15 PM91.5°52.8°
08/31 - 04:00 PM91.3°54.3°
08/31 - 03:45 PM91.7°52.9°
08/31 - 03:30 PM91.8°55.0°
08/31 - 03:15 PM91.8°53.7°
08/31 - 03:00 PM92.3°54.2°
08/31 - 02:45 PM92.6°56.2°
08/31 - 02:30 PM93.0°55.9°
08/31 - 02:15 PM93.1°56.1°
08/31 - 02:00 PM92.8°56.5°
08/31 - 01:45 PM93.2°55.3°
08/31 - 01:30 PM93.9°57.1°
08/31 - 01:15 PM94.0°58.2°
08/31 - 01:00 PM93.3°57.4°
08/31 - 12:45 PM92.4°55.8°
08/31 - 12:30 PM92.4°57.3°
08/31 - 12:15 PM91.6°57.7°
08/31 - 12:00 PM91.0°56.7°
08/31 - 11:45 AM90.1°57.8°
08/31 - 11:30 AM89.4°58.1°
08/31 - 11:15 AM88.1°57.6°
08/31 - 11:00 AM87.4°57.6°
08/31 - 10:45 AM86.2°57.3°
08/31 - 10:30 AM85.1°56.6°
08/31 - 10:15 AM84.3°54.9°
08/31 - 10:00 AM83.3°54.7°
08/31 - 09:45 AM82.8°53.3°
08/31 - 09:30 AM81.4°52.5°
08/31 - 09:15 AM80.5°52.2°
08/31 - 09:00 AM79.0°52.2°
08/31 - 08:45 AM77.0°51.5°
08/31 - 08:30 AM76.1°51.9°
08/31 - 08:15 AM74.5°52.5°
08/31 - 08:00 AM72.5°52.6°
08/31 - 07:45 AM69.9°52.1°
08/31 - 07:30 AM66.6°51.8°
08/31 - 07:15 AM63.4°50.8°
08/31 - 07:00 AM61.2°49.9°
08/31 - 06:45 AM60.5°49.1°
08/31 - 06:30 AM60.7°48.3°
08/31 - 06:15 AM61.5°47.4°
08/31 - 06:00 AM63.4°46.2°
08/31 - 05:45 AM64.0°45.2°
08/31 - 05:30 AM62.9°45.3°
08/31 - 05:15 AM61.8°46.2°
08/31 - 05:00 AM62.6°47.1°
08/31 - 04:45 AM63.7°46.9°
08/31 - 04:30 AM63.9°46.3°
08/31 - 04:15 AM63.9°45.3°
08/31 - 04:00 AM64.0°45.6°
08/31 - 03:45 AM62.4°46.4°
08/31 - 03:30 AM60.8°48.1°
08/31 - 03:15 AM60.9°50.4°
08/31 - 03:00 AM61.7°51.0°
08/31 - 02:45 AM62.2°51.1°
08/31 - 02:30 AM62.6°51.0°
08/31 - 02:15 AM63.6°49.8°
08/31 - 02:00 AM64.0°49.3°
08/31 - 01:45 AM64.3°50.1°
08/31 - 01:30 AM64.5°51.9°
08/31 - 01:15 AM64.6°51.3°
08/31 - 01:00 AM65.2°51.1°
08/31 - 12:45 AM66.4°52.3°
08/31 - 12:30 AM67.5°51.6°
08/31 - 12:15 AM66.7°51.7°
08/31 - 12:00 AM66.0°53.9°
08/30 - 11:45 PM65.5°55.2°
08/30 - 11:30 PM65.8°55.9°
08/30 - 11:15 PM66.5°55.7°
08/30 - 11:00 PM67.1°55.2°
08/30 - 10:45 PM67.2°55.1°
08/30 - 10:30 PM67.8°55.4°
08/30 - 10:15 PM68.6°55.6°
08/30 - 10:00 PM69.4°55.1°
08/30 - 09:45 PM70.1°57.2°
08/30 - 09:30 PM70.8°57.2°
08/30 - 09:15 PM71.1°56.9°
08/30 - 09:00 PM72.4°58.6°
08/30 - 08:45 PM73.6°59.2°
08/30 - 08:30 PM74.4°59.0°
08/30 - 08:15 PM75.4°59.1°
08/30 - 08:00 PM77.6°59.2°
08/30 - 07:45 PM79.6°59.6°
08/30 - 07:30 PM82.4°59.6°
08/30 - 07:15 PM85.0°59.1°
08/30 - 07:00 PM87.2°58.7°
08/30 - 06:45 PM88.6°57.1°
08/30 - 06:30 PM89.7°56.5°
08/30 - 06:15 PM90.7°55.9°
08/30 - 06:00 PM91.6°54.9°
08/30 - 05:45 PM92.3°54.6°
08/30 - 05:30 PM92.8°54.3°
08/30 - 05:15 PM93.1°54.0°
08/30 - 05:00 PM93.5°53.7°
08/30 - 04:45 PM93.8°54.0°
08/30 - 04:30 PM93.9°53.3°
08/30 - 04:15 PM93.7°53.3°
08/30 - 04:00 PM93.8°52.9°
08/30 - 03:45 PM93.9°52.9°
08/30 - 03:30 PM93.5°52.3°
08/30 - 03:15 PM93.2°52.7°
08/30 - 03:00 PM93.5°53.2°
08/30 - 02:45 PM93.2°52.6°
08/30 - 02:30 PM93.8°53.7°
08/30 - 02:15 PM94.2°53.6°
08/30 - 02:00 PM95.0°53.2°
08/30 - 01:45 PM95.1°54.4°
08/30 - 01:30 PM93.8°53.7°
08/30 - 01:15 PM92.9°54.6°
08/30 - 01:00 PM92.4°55.0°
08/30 - 12:45 PM92.3°55.2°
08/30 - 12:30 PM92.9°56.2°
08/30 - 12:15 PM91.1°55.1°
08/30 - 12:00 PM90.2°55.1°
08/30 - 11:45 AM89.5°56.4°
08/30 - 11:30 AM88.5°56.9°
08/30 - 11:15 AM87.4°57.7°
08/30 - 11:00 AM85.7°56.2°
08/30 - 10:45 AM84.6°55.7°
08/30 - 10:30 AM84.5°55.6°
08/30 - 10:15 AM83.1°55.2°
08/30 - 10:00 AM81.4°54.9°
08/30 - 09:45 AM80.7°55.1°
08/30 - 09:30 AM79.0°54.9°
08/30 - 09:15 AM77.1°55.7°
08/30 - 09:00 AM75.8°55.9°
08/30 - 08:45 AM74.3°56.0°
08/30 - 08:30 AM72.9°55.3°
08/30 - 08:15 AM71.3°55.3°
08/30 - 08:00 AM70.3°55.7°
08/30 - 07:45 AM68.9°55.4°
08/30 - 07:30 AM67.8°54.9°
08/30 - 07:15 AM67.0°54.1°